User: anonymous
Location: Caltech
(34.1382°N, 118.1253°W)
Time: 15:30:43
(UTC-07:00)
Language:

Iridium 95 - Orbit

View from above orbital plane
View from above orbital plane
View from above satellite
View from above satellite

Ground track
Ground track

The orbit data is extracted from the following two-line orbital elements,

1 27375U 02005D   14213.48131983  .00000171  00000-0  54074-4 0  3806
2 27375 086.3990 006.6520 0002103 108.9402 251.2022 14.34218996660317
Epoch (UTC): 01 August 2014 11:33:06
Eccentricity: 0.0002103
inclination: 86.3990°
perigee height: 776 km
apogee height: 779 km
right ascension of ascending node: 6.6520°
argument of perigee: 108.9402°
revolutions per day: 14.34218996
mean anomaly at epoch: 251.2022°
orbit number at epoch: 66031

The dashed part of the orbit path shows where the satellite is in the earth's shadow,  

DLR